This is the latest recevied weather packets stored in our database for station/object K8GLX. If no packets are shown the sender has not sent any weather packets the latest 10 day(s).
| Time | Temp. | Humidity | Pressure | Rain* | Wind** | Luminosity | Snow |
|---|---|---|---|---|---|---|---|
| 1777585156 | 10° C | 58% | 1014.1 hPa | 0 mm | - | 313 W/m² | - |
| 1777584866 | 10° C | 57% | 1014.1 hPa | 0 mm | - | 331 W/m² | - |
| 1777584554 | 10° C | 58% | 1014 hPa | 0 mm | - | 351 W/m² | - |
| 1777584266 | 10° C | 58% | 1014.1 hPa | 0 mm | - | 388 W/m² | - |
| 1777583833 | 10° C | 58% | 1014.4 hPa | 0 mm | - | 394 W/m² | - |
| 1777583666 | 10.56° C | 61% | 1014.1 hPa | 0 mm | - | 398 W/m² | - |
| 1777583233 | 10.56° C | 60% | 1014.1 hPa | 0 mm | - | 413 W/m² | - |
| 1777582939 | 10° C | 62% | 1013.9 hPa | 0 mm | - | 429 W/m² | - |
| 1777582633 | 10° C | 64% | 1014.1 hPa | 0 mm | - | 448 W/m² | - |
| 1777582465 | 9.44° C | 66% | 1014 hPa | 0 mm | - | 462 W/m² | - |
| 1777582033 | 10° C | 65% | 1014.1 hPa | 0 mm | - | 478 W/m² | - |
| 1777581865 | 10.56° C | 61% | 1013.9 hPa | 0 mm | - | 494 W/m² | - |
| 1777581432 | 10.56° C | 62% | 1014.1 hPa | 0 mm | - | 513 W/m² | - |
| 1777581138 | 10° C | 65% | 1013.9 hPa | 0 mm | - | 527 W/m² | - |
| 1777580838 | 9.44° C | 64% | 1013.9 hPa | 0 mm | - | 541 W/m² | - |
| 1777580774 | 10° C | 62% | 1013.9 hPa | 0 mm | - | 551 W/m² | - |
| 1777580359 | 10° C | 63% | 1014.2 hPa | 0 mm | - | 564 W/m² | - |
| 1777580065 | 10.56° C | 61% | 1014 hPa | 0 mm | - | 575 W/m² | - |
| 1777579632 | 10.56° C | 64% | 1013.9 hPa | 0 mm | - | 602 W/m² | - |
| 1777579465 | 10° C | 64% | 1014.1 hPa | 0 mm | - | 653 W/m² | - |
| 1777579032 | 9.44° C | 68% | 1014.2 hPa | 0 mm | - | 706 W/m² | - |
| 1777578867 | 10° C | 68% | 1014.1 hPa | 0 mm | - | 400 W/m² | - |
| 1777578432 | 9.44° C | 68% | 1014.2 hPa | 0 mm | - | 718 W/m² | - |
| 1777578139 | 9.44° C | 71% | 1014.1 hPa | 0 mm | - | 810 W/m² | - |
| 1777577833 | 10° C | 68% | 1014.3 hPa | 0 mm | - | 247 W/m² | - |
* Rain latest hour (hover to see other rain measurements)
** Current wind speed in m/s (hover to see current wind gust speed)